STARLINK-36639, 67669

Orbit data source: Space-Track

STARLINK-36639, 67669 is a payload satellite owned by SpaceX/Seattle (US) in SSO that was launched on Mon, 02 Feb 2026 UTC via an FALCON 9 launch vehicle from the Air Force Western Test Range (AFWTR). Payload-class satellites include a variety of spacecraft equipped with specific instruments for various scientific and technological missions. These include communications satellites like Starlink; space stations such as the ISS; scientific satellites like the Hubble; Earth observation satellites from companies like Planet Labs, Umbra, and HawkEye 360; GPS; miniature CubeSats for education and research; and military/defense satellites.

Loading next visibility...
Identifier
67669, 2026-022X
Orbit
SSO
Country
Flag of USUS
Related business
Manufacturer
SpaceX/Seattle
Mission
Operational spacecraft
Bus & Motor
STARLINK V2MO, Unknown motor
Mass
575 kg wet, ~530 kg dry
Launch date (UTC)
2026-02-02 (2 months ago)
Launch vehicle
FALCON 9
Launch site
Air Force Western Test Range (AFWTR)
Object type
Payload
Rocket body
Debris
Shape & HBR
Unknown shape, 17.7 m
Radar Cross Section
RCS unknown

Expand to show TLE details & history
Last TLE update: 6 hours ago

TLE from 6 hours ago
0 STARLINK-36639
1 67669U 26022X   26095.57205429  .00027863  00000-0  86154-3 0  9995
2 67669  97.2838 129.5463 0000994  70.5682 289.5668 15.33469143  9690
Epoch: 2026-04-05T13:43Z
TLE epoch observation values (Epoch: 2026-04-05T13:43:45.490Z)
Latitude
-0.00005°
Longitude
89.73121°
Altitude
468.356 km
Speed
7.632 km/s
True Right ascension
08h 38m 11s
True Declination
0° 00' 00"
Sunlit
Object was in full shadow at epoch
Visualization orbit readout
Latitude
Unknown
Longitude
Unknown
Altitude
Unknown
Speed
Unknown
Apparent Right ascension
Unknown
Apparent Declination
Unknown
Sunlit
N/A
Visualization observer readout
Local Sidereal Time
01:34:08
Azimuth
Unknown
Elevation
Unknown
Doppler factor
Unknown
Orbital elements
Apogee altitude
463.094 km
Perigee altitude
461.734 km
Semi-major axis
6,840.551 km
Eccentricity
0.0001
Inclination
97.2838°
RAAN
129.5463°
Arg. of periapsis
70.5682°
True anomaly
289.55607°
Mean anomaly
289.5668°
Eccentric anomaly
289.56143°
Mean motion
3.83625 °/min
Orbital period
93.84 mins
BSTAR
0.00086154
Loading maneuver chart data...
Computing Atmospheric mass density...
Loading historical data...
Loading historical data...
Loading historical data...
Loading historical data...
Loading historical data...
Loading historical data...
Loading historical data...

Documentation

Showing up to 5 results
|